Location: Beaver Brook Station
(42.3793°N, 71.2203°W)
Time: 07:14:56
(UTC+00:00)

NOSS 3-4 (A) - Pass Details

Date: 29 October 2020
Orbit: 885 x 1327 km, 63.4° (Epoch: 06 November)

Event Time Altitude Azimuth Distance (km) Brightness Sun altitude
Rises 23:16:27 0° 327° (NNW) 3,794 7.0 -18.1°
Reaches altitude 10° 23:19:10 10° 335° (NNW) 2,903 6.3 -18.6°
Maximum altitude 23:25:40 40° 44° (NE) 1,630 4.3 -19.8°
Enters shadow 23:28:04 32° 83° (E) 1,900 4.4 -20.2°
